Location: Kellogg
(38.0159°N, 90.0546°W)
Time: 12:17:02
(UTC+00:00)

Courier 1B - Pass Details

Date: 12 September 2024
Orbit: 962 x 1208 km, 28.3° (Epoch: 11 October)

Event Time Altitude Azimuth Distance (km) Brightness Sun altitude
Rises 21:04:01 0° 235° (SW) 3,936 11.7 35.2°
Reaches altitude 10° 21:07:02 10° 225° (SW) 3,015 11.3 34.7°
Maximum altitude 21:13:32 32° 165° (SSE) 1,877 9.4 33.5°
Drops below altitude 10° 21:20:16 10° 106° (ESE) 3,129 9.8 32.3°
Sets 21:23:28 0° 97° (E) 4,105 10.3 31.7°
